星链-5479 (STARLINK-5479 )

导读

STARLINK-5479是美国SpaceX公司星链(Starlink)低轨卫星互联网星座中的一颗卫星,于2023年2月17日由猎鹰9号火箭发射升空。作为星链星座组网的组成部分,它运行在近地轨道,依托霍尔推进器、高通量天线等设备,为全球提供高速低延迟卫星宽带服务,助力扩大网络覆盖范围,改善偏远地区互联网接入条件。

Basic Information
目录编号:
55662
目录名称:
STARLINK-5479
国际标识:
2023-021AL
轨道中心:
EARTH
卫星名称:
星链-5479
卫星全名:
星链-5479 (STARLINK-5479 )
卫星状态:
在轨 (已飞行1214 天)
发射日期:
2023-02-17 UTC
国别 :
美国 (US)
星等 :
--
Orbit Information
数据来源 国际轨道数据 AOE轨道数据
星历时间 2026-06-14T23:22:57+0800
14小时前
查看轨道信息
2026-06-15T06:00:00+0800
7小时前
查看轨道信息
半长轴 6952.715km 6952.657km
偏心率 0.0003093 0.0003025
轨道倾角 69.999° 69.998°
近地点辐角 269.663° 275.034°
升交点赤经 280.146° 279.450°
平近点角 90.417° 131.121°
近地点 572.427km 572.416km
远地点 576.729km 576.624km
周期 96.159分钟 96.158分钟
每日圈数 14.975148 14.975336
Detailed Information
固有亮度:
5
最大亮度:
2.5
卫星平台:
Starlink v1.5
覆盖范围:
全球
运营商:
太空探索技术公司
运营商所在国:
美国
制造商(研发单位):
太空探索技术公司
制造商所在国:
美国
使用方式:
暂无
Satellite Introduction
星链(Starlink)计划是由太空探索技术公司(SpaceX)提出的一个巨型低轨卫星互联网星座项目,计划在2019年至2024年间在太空搭建由约1.2万颗卫星组成的“星链”网络,其中1584颗将部署在地球上空550千米处的近地轨道,并从2020年开始工作。该卫星仍在工作。
2D Orbit Map
3D Orbit Map
Orbit Altitude Analysis Chart
Orbit Inclination Analysis Chart
Orbit Comprehensive Analysis Chart
View Comprehensive Chart